Location: Unspecified
(0.0000°N, 0.0000°E)
Time: 17:28:30
(UTC+00:00)

deb Briz - Pass Details

Date: 23 February 2026
Orbit: 1598 x 2046 km, 64.9° (Epoch: 8 March)

Event Time Altitude Azimuth Distance (km) Brightness Sun altitude
Rises 01:52:46 0° 164° (SSE) 5,260 ? -63.4°
Reaches altitude 10° 01:59:37 10° 134° (SE) 4,142 ? -61.8°
Maximum altitude 02:02:48 12° 116° (ESE) 3,949 ? -61.1°
Drops below altitude 10° 02:05:53 10° 98° (E) 4,030 ? -60.3°
Sets 02:12:07 0° 68° (ENE) 4,917 ? -58.9°
